TimePDT,TemperatureF,Dew PointF,Humidity,Sea Level PressureIn,VisibilityMPH,Wind Direction,Wind SpeedMPH,Gust SpeedMPH,PrecipitationIn,Events,Conditions,WindDirDegrees,DateUTC
12:42 AM,53.6,51.8,94,29.97,10.0,West,2.3,-,N/A,Rain,Light Rain,260,2012-10-30 07:42:00
12:58 AM,53.2,53.1,99,29.99,9.0,Calm,Calm,-,0.00,Rain,Light Rain,0,2012-10-30 07:58:00
1:38 AM,51.8,51.8,100,29.96,9.0,ESE,3.5,-,N/A,Rain,Light Rain,110,2012-10-30 08:38:00
1:53 AM,53.6,51.8,94,29.94,7.0,East,6.9,-,N/A,Rain,Light Rain,90,2012-10-30 08:53:00
1:58 AM,52.9,52.7,99,29.94,6.0,East,5.8,-,0.04,Rain,Light Rain,80,2012-10-30 08:58:00
2:58 AM,53.2,53.1,99,29.92,10.0,North,2.3,-,0.04,Rain,Light Rain,360,2012-10-30 09:58:00
3:37 AM,53.6,53.6,100,29.89,10.0,NNW,4.6,-,N/A,,Overcast,340,2012-10-30 10:37:00
3:58 AM,53.4,53.1,99,29.90,10.0,NNW,3.5,-,0.00,,Overcast,340,2012-10-30 10:58:00
4:16 AM,53.6,53.6,100,29.88,10.0,NW,1.2,-,N/A,Rain,Light Rain,310,2012-10-30 11:16:00
4:36 AM,53.6,53.6,100,29.88,6.0,Calm,Calm,-,N/A,Rain,Light Rain,20,2012-10-30 11:36:00
4:41 AM,53.6,53.6,100,29.88,4.0,Calm,Calm,-,N/A,Rain,Light Rain,0,2012-10-30 11:41:00
4:46 AM,53.6,53.6,100,29.89,2.5,Calm,Calm,-,N/A,Rain,Rain,150,2012-10-30 11:46:00
4:51 AM,53.6,53.6,100,29.88,2.0,NNW,2.3,-,N/A,Rain,Rain,330,2012-10-30 11:51:00
4:56 AM,53.6,53.6,100,29.87,2.5,North,4.6,-,N/A,Rain,Light Rain,360,2012-10-30 11:56:00
4:58 AM,53.6,53.6,100,29.88,3.0,North,3.5,-,0.08,Rain,Light Rain,10,2012-10-30 11:58:00
5:22 AM,53.6,53.6,100,29.86,10.0,NNE,2.3,-,N/A,,Overcast,30,2012-10-30 12:22:00
5:28 AM,53.6,53.6,100,29.87,9.0,Variable,1.2,-,N/A,,Light Drizzle,0,2012-10-30 12:28:00
5:48 AM,53.6,53.6,100,29.86,8.0,SSE,2.3,-,N/A,,Light Drizzle,150,2012-10-30 12:48:00
5:49 AM,53.6,53.6,100,29.86,8.0,SSE,2.3,-,N/A,,Overcast,150,2012-10-30 12:49:00
5:58 AM,53.4,53.1,99,29.87,6.0,Calm,Calm,-,0.01,,Overcast,100,2012-10-30 12:58:00
6:37 AM,53.6,53.6,100,29.87,7.0,South,2.3,-,N/A,Rain,Light Rain,190,2012-10-30 13:37:00
6:56 AM,53.6,53.6,100,29.86,8.0,SSE,2.3,-,N/A,,Mostly Cloudy,160,2012-10-30 13:56:00
6:58 AM,53.6,53.6,100,29.87,8.0,SSE,2.3,-,0.00,,Mostly Cloudy,160,2012-10-30 13:58:00
7:38 AM,53.6,53.6,100,29.86,10.0,Calm,Calm,-,N/A,,Overcast,140,2012-10-30 14:38:00
7:48 AM,53.6,53.6,100,29.86,10.0,SE,2.3,-,N/A,,Overcast,140,2012-10-30 14:48:00
7:53 AM,53.6,53.6,100,29.86,10.0,SE,3.5,-,N/A,,Overcast,140,2012-10-30 14:53:00
7:58 AM,53.1,52.9,99,29.88,9.0,ESE,3.5,-,N/A,,Overcast,110,2012-10-30 14:58:00
8:13 AM,53.6,53.6,100,29.86,10.0,East,3.5,-,N/A,,Overcast,100,2012-10-30 15:13:00
8:43 AM,53.6,53.6,100,29.87,10.0,ESE,4.6,-,N/A,,Overcast,120,2012-10-30 15:43:00
8:53 AM,53.6,53.6,100,29.87,10.0,SE,3.5,-,N/A,Rain,Light Rain,130,2012-10-30 15:53:00
8:58 AM,54.0,53.6,99,29.88,10.0,SSE,2.3,-,0.00,Rain,Light Rain,150,2012-10-30 15:58:00
9:08 AM,53.6,53.6,100,29.87,10.0,SE,2.3,-,N/A,Rain,Light Rain,130,2012-10-30 16:08:00
9:14 AM,55.4,53.6,94,29.87,10.0,SE,2.3,-,N/A,,Overcast,130,2012-10-30 16:14:00
9:20 AM,55.4,55.4,100,29.87,10.0,SSE,3.5,-,N/A,Rain,Light Rain,150,2012-10-30 16:20:00
9:35 AM,55.4,55.4,100,29.87,8.0,South,3.5,-,N/A,Rain,Light Rain,180,2012-10-30 16:35:00
9:42 AM,55.4,55.4,100,29.87,9.0,SSE,4.6,-,N/A,,Overcast,160,2012-10-30 16:42:00
9:58 AM,56.5,56.1,99,29.88,10.0,South,4.6,-,0.01,,Overcast,170,2012-10-30 16:58:00
10:27 AM,57.2,57.2,100,29.86,10.0,SE,3.5,-,N/A,Rain,Light Rain,140,2012-10-30 17:27:00
10:58 AM,57.7,57.6,99,29.87,10.0,NNE,1.2,-,0.00,Rain,Light Rain,20,2012-10-30 17:58:00
11:58 AM,59.0,58.6,99,29.87,10.0,East,2.3,-,0.04,Rain,Light Rain,80,2012-10-30 18:58:00
12:38 PM,59.0,59.0,100,29.85,4.0,SE,4.6,-,N/A,Rain,Light Rain,140,2012-10-30 19:38:00
12:53 PM,57.2,57.2,100,29.85,4.0,South,5.8,-,N/A,Rain,Light Rain,180,2012-10-30 19:53:00
12:58 PM,57.2,55.4,94,29.86,3.0,South,5.8,-,0.11,Rain,Rain,170,2012-10-30 19:58:00
1:03 PM,57.2,55.4,94,29.84,2.5,ESE,5.8,-,N/A,Rain,Heavy Rain,120,2012-10-30 20:03:00
1:08 PM,57.2,55.4,94,29.84,3.0,SSE,3.5,-,N/A,Rain,Light Rain,160,2012-10-30 20:08:00
1:33 PM,57.2,57.2,100,29.84,3.0,SE,5.8,-,N/A,Rain,Rain,130,2012-10-30 20:33:00
1:58 PM,56.7,56.3,99,29.84,5.0,ESE,4.6,-,0.17,Rain,Light Rain,110,2012-10-30 20:58:00
2:08 PM,55.4,55.4,100,29.82,4.0,ESE,4.6,-,N/A,Rain,Light Rain,120,2012-10-30 21:08:00
2:13 PM,55.4,55.4,100,29.82,5.0,ESE,4.6,-,N/A,Rain,Light Rain,120,2012-10-30 21:13:00
2:18 PM,55.4,55.4,100,29.81,6.0,ESE,4.6,-,N/A,Rain,Light Rain,110,2012-10-30 21:18:00
2:43 PM,55.4,55.4,100,29.81,8.0,ESE,4.6,-,N/A,Rain,Light Rain,110,2012-10-30 21:43:00
2:58 PM,55.6,55.2,99,29.81,10.0,East,5.8,-,0.08,Rain,Light Rain,90,2012-10-30 21:58:00
3:58 PM,56.5,56.1,99,29.81,10.0,ESE,3.5,-,0.03,Rain,Light Rain,120,2012-10-30 22:58:00
4:41 PM,57.2,57.2,100,29.80,6.0,South,5.8,-,N/A,Rain,Light Rain,190,2012-10-30 23:41:00
4:58 PM,57.0,56.7,99,29.81,10.0,SSE,5.8,-,0.05,Rain,Light Rain,160,2012-10-30 23:58:00
5:58 PM,57.4,57.2,99,29.78,7.0,SSE,8.1,-,0.05,Rain,Light Rain,150,2012-10-31 00:58:00
6:58 PM,57.9,57.6,99,29.78,10.0,SSE,8.1,-,0.02,Rain,Light Rain,150,2012-10-31 01:58:00
7:58 PM,57.9,57.7,99,29.77,10.0,SE,5.8,-,0.01,Rain,Light Rain,140,2012-10-31 02:58:00
8:18 PM,59.0,57.2,94,29.77,8.0,SSE,6.9,-,N/A,Rain,Light Rain,150,2012-10-31 03:18:00
8:35 PM,57.2,57.2,100,29.76,10.0,SE,5.8,-,N/A,,Overcast,130,2012-10-31 03:35:00
8:40 PM,57.2,57.2,100,29.76,10.0,SE,4.6,-,N/A,Rain,Light Rain,140,2012-10-31 03:40:00
8:43 PM,57.2,57.2,100,29.76,9.0,SSE,3.5,-,N/A,Rain,Light Rain,160,2012-10-31 03:43:00
8:58 PM,57.7,57.4,99,29.77,7.0,SE,2.3,-,0.04,Rain,Light Rain,130,2012-10-31 03:58:00
9:34 PM,57.2,57.2,100,29.76,10.0,SSE,4.6,-,N/A,,Overcast,160,2012-10-31 04:34:00
9:35 PM,57.2,57.2,100,29.76,10.0,SSE,4.6,-,N/A,Rain,Light Rain,160,2012-10-31 04:35:00
9:58 PM,57.9,57.4,98,29.77,10.0,SSE,4.6,-,0.01,Rain,Light Rain,160,2012-10-31 04:58:00
10:33 PM,59.0,57.2,94,29.77,6.0,SSE,10.4,-,N/A,Rain,Light Rain,150,2012-10-31 05:33:00
10:58 PM,58.1,57.2,97,29.77,7.0,SE,5.8,-,0.08,Rain,Light Rain,140,2012-10-31 05:58:00
11:58 PM,57.6,57.2,99,29.77,10.0,South,4.6,-,0.05,Rain,Light Rain,170,2012-10-31 06:58:00